Regional Weather Roundup
Issued by NWS Sioux Falls, SD

Home | Current Version | Previous Version | Text Only | Print | Product List | Glossary On
Versions: 1 2 3 4 5 6 7 8 9 10 11 12 13 14 15 16 17 18 19 20 21 22 23 24 25 26 27 28 29 30 31 32 33 34 35 36 37 38 39 40 41 42 43 44 45 46 47 48 49 50
000
ASUS43 KFSD 302210
RWRFSD

WEATHER ROUNDUP FOR SE SOUTH DAKOTA/SW MINNESOTA/NW IOWA
NATIONAL WEATHER SERVICE SIOUX FALLS SD
500 PM CDT SAT MAY 30 2015

NOTE: "FAIR" INDICATES FEW OR NO CLOUDS BELOW 12,000 FEET WITH NO
SIGNIFICANT WEATHER AND OR OBSTRUCTIONS TO VISIBILITY.


SDZ038>040-050-052>070-302300-
SOUTHEAST SOUTH DAKOTA

CITY           SKY/WX    TMP DP  RH WIND       PRES   REMARKS
BROOKINGS      SUNNY     55  37  50 NE10      30.27S
CHAMBERLAIN    SUNNY     60  31  33 NE3       30.26F
HURON          SUNNY     62  36  37 VRB6      30.26F
MADISON        FAIR      57  37  47 NE9G16    30.26S
MITCHELL       SUNNY     64  37  36 N8        30.25F
SIOUX FALLS    MOSUNNY   62  42  47 NE13      30.23F
WINNER         FAIR      63  34  33 NE8       30.25F
YANKTON        SUNNY     64  41  42 N10G17    30.22S
$$

MNZ071-072-080-081-089-090-097-098-302300-
SOUTHWEST MINNESOTA

CITY           SKY/WX    TMP DP  RH WIND       PRES   REMARKS
FAIRMONT       MOSUNNY   63  43  48 N13       30.21S
JACKSON        SUNNY     61  43  51 N15G21    30.22F
LUVERNE        SUNNY     61  41  48 NE9       30.24S
MARSHALL       SUNNY     59  37  44 NE13G18   30.24F
MONTEVIDEO     SUNNY     63  37  39 NE9       30.27S
PIPESTONE      SUNNY     59  39  47 NE10G17   30.24F
REDWOOD FALLS  SUNNY     63  35  35 NE9G18    30.24S
TRACY          SUNNY     61  40  45 N14G20    30.24F
WINDOM         SUNNY     63  39  42 N13G20    30.23S
WORTHINGTON    SUNNY     61  39  44 N15G24    30.23S
$$

IAZ001>003-012>014-020>022-031-032-NEZ013-014-SDZ071-302300-
NORTHWEST IOWA

CITY           SKY/WX    TMP DP  RH WIND       PRES   REMARKS
CHEROKEE       SUNNY     64  44  48 NE9       30.19F
DENISON        SUNNY     64  45  48 NE14G21   30.15F
LE MARS        SUNNY     64  43  45 NE12G18   30.22S
ORANGE CITY    SUNNY     63  43  48 NE9G16    30.22S
SHELDON        SUNNY     63  61  94 NE16G23   30.21S
SIOUX CITY     SUNNY     67  42  40 N15       30.20F
SPENCER        SUNNY     64  44  48 N16       30.20F
STORM LAKE     SUNNY     64  39  39 NE18      30.19F
$$

ABBREVIATIONS USED IN REMARKS
   TC - TEMPERATURE IN CELSIUS
  WCI - WIND CHILL INDEX
   HX - HEAT INDEX
  VSB - VISIBILITY




USA.gov is the U.S. government's official web portal to all federal, state and local government web resources and services.